ONEWEB-0082 (45452 NORAD) Tracking and Keplerian Element Data

This shows tracking and keplerian element data for the satellite.

Feedback or suggestion? Click here.




ElementValue
Catalog45452
NameONEWEB-0082
Epoch Orbit3157
Epoch Day293.91673611
Epoch Year2020
RAAN72.7765
Inclination87.8039
Eccentricity0.002647
Argument of Perigee265.1568
Mean Anonmoly183.3544
Mean Motion13.97028232
Decay Rate-0.00013494
L11 45452U 20020AE 20293.91673611 -.00013494 00000-0 -96834-2 0 9999
L22 45452 87.8039 72.7765 0026470 265.1568 183.3544 13.97028232 31574

Live tracking and technical data element details for ONEWEB-0082 (NORAD 45452). ONEWEB-0082 can be tracked NOW for your location showing map with azimuth and elevation plus other details from your city location.

Track the satellite on the map from your city or location and see movement details for azimuth, elevation, latitude, longitude, range, height, and movement on the map or in text.







IsCatalogInMostPopularTable: catalog: 45452, numindb: 49
Update: records affected: 1



GetName: 45452 ONEWEB-0082

Hit Count: updated at: Tue, 20 Oct 2020 11:23:28 GMT